OBJECT B, 63292

Orbit data source: Space-Track

You're viewing an Uncataloged Satellite

Recently launched and/or uncataloged satellites may have evolving metadata. Metadata may include but not limited to: Owner, Maufacturer, Bus, Motor, and Mission.

OBJECT B, 63292 is a satellite owned by Yunyao yuhang (CN) in SSO that was launched on Mon, 17 Mar 2025 UTC via a GUSHENXING 1 launch vehicle from the Jiuquan Satellite Launch Center, China (JSC). Unknown objects in Earth's orbit typically refer to objects detected orbiting the Earth but have not yet been identified or cataloged. These objects could be anything from previously untracked satellites, spent rocket stages, debris from satellite collisions, or even natural meteoroids temporarily captured by Earth's gravity.

Loading next visibility...
Identifier
63292, 2025-055B
Orbit
SSO
Last TLE update
9 hours ago
Origin
Flag of CNYYAO (CN / PRC)
Manufacturer
Changguang WJ
Mission
Operational Commercial Meteo Radio Occ.
Bus & Motor
YY-1, Unknown motor
Mass
~50 kg wet, ~50 kg dry
Launch date (UTC)
2025-03-17 (4 months ago)
Launch vehicle
GUSHENXING 1
Launch site
Jiuquan Satellite Launch Center, China (JSC)
Object type
Unknown
Shape & HBR
Box + 1 Pan, 5 m
Radar Cross Section
5.339 m², Medium (>0.1 m² and < 1m²)

Expand to show TLE details & history

TLE from 9 hours ago
0 OBJECT B
1 63292U 25055B   25184.19421264  .00006304  00000-0  37161-3 0  9992
2 63292  97.6120 318.9739 0011869 284.6286  75.3628 15.11880260 16257
Epoch: 2025-07-03T04:39Z
TLE epoch observation values (Epoch: 2025-07-03T04:39:39.972Z)
Latitude
0.00001°
Longitude
-32.40711°
Altitude
531.476 km
Speed
7.598 km/s
True Right ascension
21h 15m 53s
True Declination
0° 00' 00"
Sunlit
Object was in full shadow at epoch
Visualization orbit readout
Latitude
-14.45275°
Longitude
-30.05107°
Altitude
532.693 km
Speed
7.598 km/s
Apparent Right ascension
18h 32m 18s
Apparent Declination
-41° 15' 05"
Sunlit
Object is in full shadow
Visualization observer readout
Local Sidereal Time
01:54:36
Azimuth
244.469° WSW
Elevation
-38.735°
Doppler factor
1
Orbital elements
Apogee altitude
535.648 km
Perigee altitude
519.255 km
Semi-major axis
6,905.589 km
Eccentricity
0.00119
Inclination
97.612°
RAAN
318.9739°
Arg. of periapsis
284.6286°
True anomaly
Unknown
Mean anomaly
75.3628°
Eccentric anomaly
Unknown
Mean motion
3.78218 °/min
Orbital period
95.18 mins
BSTAR
0.00037161
Loading maneuver chart data...
Loading SW <> Apogee altitude chart data...
Loading historical data...
Loading historical data...
Loading historical data...
Loading historical data...
Loading historical data...
Loading historical data...
Loading historical data...

OBJECT B Visibility forecast

Observer location: undefined°, undefined°

Span
Click to sort rows by Start time (UTC) header in descending order
Start Az.
Max El. time (UTC)
Max El. Az.
Max El.
End time (UTC)
End Az.
5 mins2025-07-03 21:07:39.878Z48.504° ENE2025-07-03 21:09:39.878Z84.976° E21.281°2025-07-03 21:12:39.878Z144.263° SSE
4 mins2025-07-03 22:42:39.878Z325.838° NNW2025-07-03 22:44:39.878Z282.263° WNW20.953°2025-07-03 22:46:39.878Z245.577° WSW
5 mins2025-07-04 09:23:39.878Z197.997° SSW2025-07-04 09:25:39.878Z263.55° W36.447°2025-07-04 09:28:39.878Z332.563° NNW
|